Jackson, MN

4:55 AM CST on November 14, 2019 (GMT -0600)
Jackson Municipal

Weather History for KMJQ - August, 2019

Change the Weather History Date:

Tuesday, August 20, 2019

  Actual Average Record
Temperature  
Mean Temperature 74 °F -  
Max Temperature 84 °F 76 °F 87 °F (2008)
Min Temperature 64 °F 57 °F 46 °F (2004)
Cooling Degree Days 9    
Growing Degree Days 24 (Base 50)    
Moisture  
Dew Point 65 °F    
Average Humidity 78    
Maximum Humidity 94    
Minimum Humidity 54    
Precipitation  
Precipitation 0.30 in - - ()
Sea Level Pressure  
Sea Level Pressure 29.97 in    
Wind  
Wind Speed 9 mph (South)    
Max Wind Speed 15 mph    
Max Gust Speed 20 mph    
Visibility 9 miles    
Events Thunderstorm    
Averages and records for this station are not official NWS values.
T = Trace of Precipitation, MM = Missing Value Source: NWS Daily Summary

Daily Weather History Graph

Daily Weather History Graph

Search for Another Location

Airport or City:

Astronomy

Aug. 20, 2019 Rise Set
Actual Time 6:29 AM CDT 8:15 PM CDT
Civil Twilight 5:59 AM CDT 8:46 PM CDT
Nautical Twilight 5:22 AM CDT 9:23 PM CDT
Astronomical Twilight 4:41 AM CDT 10:03 PM CDT
Moon 10:55 PM CDT (8/20) 11:17 AM CDT (8/20)
Length of Visible Light 14h 47m
Length of Day
13h 46m
Waning Gibbous, 77% of the Moon is Illuminated
Aug 20
Waning Gibbous
Aug 23
Last Quarter
Aug 30
New
Sep 5
First Quarter
Sep 13
Full

Hourly Weather History & Observations

Time (CDT) Temp. Heat Index Dew Point Humidity Pressure Visibility Wind Dir Wind Speed Gust Speed Precip Events Conditions
12:15 AM 69.8 °F - 64.4 °F 83% 30.01 in 10.0 mi SSE 8.1 mph - N/A   Scattered Clouds
12:35 AM 69.8 °F - 64.4 °F 83% 30.00 in 10.0 mi SE 10.4 mph - N/A   Mostly Cloudy
12:55 AM 69.8 °F - 64.4 °F 83% 29.99 in 10.0 mi SE 8.1 mph - N/A   Overcast
1:15 AM 69.8 °F - 64.4 °F 83% 29.99 in 10.0 mi SSE 9.2 mph - N/A   Overcast
1:55 AM 69.8 °F - 64.4 °F 83% 29.95 in 10.0 mi SE 9.2 mph - N/A   Scattered Clouds
2:15 AM 69.8 °F - 64.4 °F 83% 29.95 in 10.0 mi SSE 6.9 mph - N/A   Mostly Cloudy
2:35 AM 69.8 °F - 64.4 °F 83% 29.94 in 10.0 mi SE 6.9 mph - N/A   Overcast
2:55 AM 69.8 °F - 66.2 °F 88% 29.93 in 3.0 mi SE 8.1 mph - 0.02 in Thunderstorm Overcast
3:15 AM 68.0 °F - 66.2 °F 94% 29.92 in 2.5 mi SSE 9.2 mph - 0.06 in Thunderstorm Thunderstorm
3:16 AM 68.0 °F - 66.2 °F 94% 29.92 in 2.5 mi SSE 9.2 mph - 0.07 in Thunderstorm Thunderstorm
3:35 AM 68.0 °F - 66.2 °F 94% 29.92 in 10.0 mi SE 8.1 mph - 0.13 in Thunderstorm Thunderstorm
3:55 AM 68.0 °F - 66.2 °F 94% 29.91 in 7.0 mi SSE 10.4 mph - 0.17 in Thunderstorm Thunderstorm
4:35 AM 68.0 °F - 64.4 °F 88% 29.91 in 10.0 mi South 12.7 mph 19.6 mph N/A Thunderstorm Overcast
4:36 AM 68.0 °F - 64.4 °F 88% 29.91 in 10.0 mi South 13.8 mph 19.6 mph N/A Thunderstorm Overcast
4:55 AM 66.2 °F - 64.4 °F 94% 29.91 in 10.0 mi SSE 11.5 mph - N/A Thunderstorm Mostly Cloudy
5:15 AM 66.2 °F - 64.4 °F 94% 29.91 in 10.0 mi South 9.2 mph 17.3 mph N/A Thunderstorm Mostly Cloudy
5:16 AM 66.2 °F - 64.4 °F 94% 29.90 in 10.0 mi South 9.2 mph - N/A   Mostly Cloudy
5:35 AM 66.2 °F - 62.6 °F 88% 29.91 in 10.0 mi SSE 5.8 mph - N/A   Mostly Cloudy
5:55 AM 66.2 °F - 62.6 °F 88% 29.91 in 10.0 mi East 11.5 mph - N/A Thunderstorm Thunderstorm
6:15 AM 64.4 °F - 62.6 °F 94% 29.92 in 10.0 mi SSE 5.8 mph - N/A   Overcast
6:35 AM 66.2 °F - 62.6 °F 88% 29.95 in 10.0 mi South 6.9 mph - N/A Thunderstorm Overcast
6:36 AM 66.2 °F - 62.6 °F 88% 29.95 in 10.0 mi South 4.6 mph - N/A Thunderstorm Overcast
6:55 AM 66.2 °F - 62.6 °F 88% 29.95 in 10.0 mi SSE 10.4 mph - N/A Thunderstorm Overcast
7:15 AM 66.2 °F - 62.6 °F 88% 29.95 in 10.0 mi SE 10.4 mph - N/A   Overcast
7:35 AM 68.0 °F - 62.6 °F 83% 29.96 in 10.0 mi ESE 13.8 mph 18.4 mph N/A Thunderstorm Thunderstorm
7:55 AM 66.2 °F - 62.6 °F 88% 29.99 in 10.0 mi SE 13.8 mph 17.3 mph N/A   Overcast
8:15 AM 66.2 °F - 62.6 °F 88% 29.98 in 10.0 mi SE 11.5 mph - N/A   Mostly Cloudy
8:35 AM 68.0 °F - 62.6 °F 83% 29.99 in 7.0 mi SSE 11.5 mph - 0.01 in   Mostly Cloudy
8:55 AM 66.2 °F - 62.6 °F 88% 30.00 in 1.2 mi South 4.6 mph - 0.04 in Thunderstorm Thunderstorm
9:15 AM 66.2 °F - 62.6 °F 88% 29.99 in 10.0 mi South 11.5 mph - 0.05 in   Scattered Clouds
9:35 AM 69.8 °F - 64.4 °F 83% 29.98 in 10.0 mi South 12.7 mph - 0.07 in   Clear
9:55 AM 71.6 °F - 64.4 °F 78% 29.97 in 10.0 mi South 12.7 mph - 0.07 in   Clear
9:56 AM 71.6 °F - 64.4 °F 78% 29.97 in 10.0 mi South 12.7 mph - N/A   Clear
10:15 AM 73.4 °F - 64.4 °F 73% 29.97 in 10.0 mi South 12.7 mph - N/A   Clear
10:35 AM 75.2 °F - 64.4 °F 69% 29.96 in 10.0 mi South 13.8 mph - N/A   Clear
10:55 AM 77.0 °F - 64.4 °F 65% 29.96 in 10.0 mi SSW 13.8 mph 19.6 mph N/A   Clear
11:15 AM 77.0 °F - 64.4 °F 65% 29.97 in 10.0 mi SW 12.7 mph 17.3 mph N/A   Clear
11:35 AM 78.8 °F - 64.4 °F 61% 29.98 in 10.0 mi SW 15.0 mph - N/A   Clear
11:55 AM 78.8 °F - 64.4 °F 61% 29.99 in 10.0 mi SW 11.5 mph - N/A   Clear
11:56 AM 78.8 °F - 64.4 °F 61% 29.99 in 10.0 mi SW 11.5 mph - N/A   Clear
12:15 PM 80.6 °F 82.7 °F 66.2 °F 61% 30.00 in 10.0 mi SW 9.2 mph - N/A   Clear
12:35 PM 80.6 °F 82.7 °F 66.2 °F 61% 30.00 in 10.0 mi SSW 4.6 mph - N/A   Clear
12:36 PM 80.6 °F 82.7 °F 66.2 °F 61% 30.00 in 10.0 mi South 4.6 mph - N/A   Clear
12:55 PM 80.6 °F 82.7 °F 66.2 °F 61% 30.00 in 10.0 mi SE 3.5 mph - N/A   Clear
1:15 PM 82.4 °F 83.9 °F 64.4 °F 54% 29.99 in 10.0 mi WSW 4.6 mph - N/A   Clear
1:16 PM 82.4 °F 83.9 °F 64.4 °F 54% 29.99 in 10.0 mi SW 3.5 mph - N/A   Clear
1:35 PM 82.4 °F 84.6 °F 66.2 °F 58% 30.00 in 10.0 mi South 4.6 mph - N/A   Scattered Clouds
1:55 PM 82.4 °F 85.4 °F 68.0 °F 62% 30.01 in 10.0 mi ESE 5.8 mph - N/A   Scattered Clouds
1:56 PM 82.4 °F 85.4 °F 68.0 °F 62% 30.01 in 10.0 mi ESE 5.8 mph - N/A   Scattered Clouds
2:15 PM 82.4 °F 85.4 °F 68.0 °F 62% 30.00 in 10.0 mi SSE 4.6 mph - N/A   Scattered Clouds
2:35 PM 82.4 °F 85.4 °F 68.0 °F 62% 30.00 in 10.0 mi Calm Calm - N/A   Scattered Clouds
2:55 PM 84.2 °F 87.3 °F 68.0 °F 58% 29.99 in 10.0 mi SW 3.5 mph - N/A   Mostly Cloudy
3:55 PM 84.2 °F 88.4 °F 69.8 °F 62% 29.98 in 10.0 mi West 3.5 mph - N/A   Clear
4:55 PM 84.2 °F 89.6 °F 71.6 °F 66% 29.98 in 10.0 mi SW 6.9 mph - N/A   Clear
5:55 PM 82.4 °F 88.2 °F 73.4 °F 74% 29.98 in 10.0 mi West 5.8 mph - N/A   Clear
6:55 PM 82.4 °F 87.2 °F 71.6 °F 70% 29.99 in 10.0 mi WNW 8.1 mph - N/A   Clear
7:55 PM 77.0 °F - 71.6 °F 83% 30.00 in 10.0 mi NNW 10.4 mph 17.3 mph N/A   Scattered Clouds
8:55 PM 73.4 °F - 68.0 °F 83% 30.02 in 10.0 mi North 6.9 mph - N/A   Scattered Clouds
9:55 PM 71.6 °F - 68.0 °F 88% 30.04 in 10.0 mi North 4.6 mph - N/A   Mostly Cloudy
10:55 PM 69.8 °F - 66.2 °F 88% 30.07 in 10.0 mi NNW 8.1 mph - N/A   Scattered Clouds
11:55 PM 68.0 °F - 64.4 °F 88% 30.08 in 10.0 mi North 4.6 mph - N/A   Clear